Tracking 18665 objects as of 24-June-2017
HD Live streaming from Space Station
objects crossing your sky now

DELTA 1 R/B

Track DELTA 1 R/B now!
10-day predictions


NORAD ID: 2661
Int'l Code: 1967-006B
Perigee: 1,347.0 km
Apogee: 1,448.0 km
Inclination: 101.9 °
Period: 113.6 minutes
Semi major axis: 7768 km
RCS: 0.6811 m2 (medium)
Launch date: January 26, 1967
Source: United States (US)
Launch site: AIR FORCE WESTERN TEST RANGE (AFWTR)

Note: This is a ROCKET BODY
Your satellite tracking list
Your tracking list is empty





NASA's NSSDC Master Catalog

Two Line Element Set (TLE):
1  2661U 67006B   17174.90232066 -.00000040 +00000-0 +39264-4 0  9995
2  2661 101.9111 084.0694 0065002 003.8654 130.6581 12.67927105332407
Source of the keplerian elements: AFSPC